This is the latest recevied weather packets stored in our database for station/object KD8OZS. If no packets are shown the sender has not sent any weather packets the latest 10 day(s).
| Time | Temp. | Humidity | Pressure | Rain* | Wind** | Luminosity | Snow |
|---|---|---|---|---|---|---|---|
| 1788129730 | 23.33° C | 90% | 1011.4 hPa | 0 mm | - | 37 W/m² | - |
| 1788129427 | 23.33° C | 90% | 1011.3 hPa | 0 mm | - | 30 W/m² | - |
| 1788129122 | 23.89° C | 90% | 1011.3 hPa | 0 mm | - | 32 W/m² | - |
| 1788128816 | 24.44° C | 90% | 1011.4 hPa | 0 mm | - | 30 W/m² | - |
| 1788128512 | 24.44° C | 89% | 1011.4 hPa | 0 mm | - | 27 W/m² | - |
| 1788128208 | 24.44° C | 87% | 1011.3 hPa | 0 mm | - | 39 W/m² | - |
| 1788127904 | 24.44° C | 85% | 1011.3 hPa | 0 mm | - | 72 W/m² | - |
| 1788127599 | 24.44° C | 86% | 1011 hPa | 0 mm | - | 98 W/m² | - |
| 1788127298 | 24.44° C | 87% | 1010.9 hPa | 0 mm | - | 121 W/m² | - |
| 1788126997 | 23.89° C | 87% | 1010.6 hPa | 0 mm | - | 115 W/m² | - |
| 1788126692 | 23.89° C | 89% | 1010.9 hPa | 0 mm | - | 118 W/m² | - |
| 1788126387 | 23.89° C | 90% | 1010.9 hPa | 0 mm | - | 102 W/m² | - |
| 1788126082 | 23.89° C | 89% | 1011 hPa | 0 mm | - | 61 W/m² | - |
| 1788125781 | 23.89° C | 89% | 1010.8 hPa | 0 mm | - | 55 W/m² | - |
| 1788125476 | 23.89° C | 90% | 1011 hPa | 0 mm | - | 76 W/m² | - |
| 1788125172 | 23.89° C | 89% | 1011.1 hPa | 0 mm | - | 84 W/m² | - |
| 1788124867 | 23.89° C | 90% | 1011 hPa | 0 mm | - | 94 W/m² | - |
| 1788124561 | 23.89° C | 91% | 1010.7 hPa | 0 mm | - | 114 W/m² | - |
| 1788124256 | 23.33° C | 91% | 1010.9 hPa | 0 mm | - | 101 W/m² | - |
| 1788123951 | 23.33° C | 91% | 1011.1 hPa | 0 mm | - | 73 W/m² | - |
| 1788123650 | 23.33° C | 91% | 1011.1 hPa | 0 mm | - | 88 W/m² | - |
| 1788123348 | 23.33° C | 91% | 1011.2 hPa | 0 mm | - | 111 W/m² | - |
| 1788123044 | 23.33° C | 90% | 1011.7 hPa | 0 mm | - | 74 W/m² | - |
| 1788122743 | 23.89° C | 90% | 1011.9 hPa | 0 mm | - | 70 W/m² | - |
| 1788122442 | 24.44° C | 89% | 1011.8 hPa | 0 mm | - | 56 W/m² | - |
* Rain latest hour (hover to see other rain measurements)
** Current wind speed in m/s (hover to see current wind gust speed)